Weather History for KFNT - April, 2014

Change the Weather History Date:

Tuesday, April 29, 2014

  Actual Average Record
Temperature  
Mean Temperature 62 °F 51 °F  
Max Temperature 75 °F 63 °F 82 °F (1942)
Min Temperature 48 °F 40 °F 22 °F (2012)
Degree Days  
Heating Degree Days 3 14  
Month to date heating degree days 522 549  
Since 1 July heating degree days 7247 6594  
Cooling Degree Days 0 0  
Month to date cooling degree days 0 0  
Year to date cooling degree days 0 0  
Growing Degree Days 12 (Base 50)    
Moisture  
Dew Point 47 °F    
Average Humidity 60    
Maximum Humidity 89    
Minimum Humidity 31    
Precipitation  
Precipitation 0.96 in 0.10 in 0.98 in (1956)
Month to date precipitation 2.43 2.79  
Year to date precipitation 7.65 7.81  
Snow  
Snow 0.00 in 0.00 in T in ()
Month to date snowfall 1.3 2.3  
Since 1 July snowfall 83.9 47.4  
Snow Depth 0.00 in    
Sea Level Pressure  
Sea Level Pressure 29.65 in    
Wind  
Wind Speed 13 mph (SE)    
Max Wind Speed 23 mph    
Max Gust Speed 33 mph    
Visibility 8 miles    
Events Rain , Thunderstorm    
T = Trace of Precipitation, MM = Missing Value Source: NWS Daily Summary

Daily Weather History Graph

Daily Weather History Graph

Search for Another Location

Airport or City:

Trip Planner

Search our weather history database for the weather conditions in past years. The results will help you decide how hot, cold, wet, or windy it might be!

Date:

Astronomy

Apr. 29, 2014 Rise Set
Actual Time 6:31 AM EDT 8:33 PM EDT
Civil Twilight 6:00 AM EDT 9:04 PM EDT
Nautical Twilight 5:23 AM EDT 9:42 PM EDT
Astronomical Twilight 4:42 AM EDT 10:24 PM EDT
Moon 6:49 AM EDT (4/29) 9:13 PM EDT (4/29)
Length of Visible Light 15h 03m
Length of Day
14h 01m
New Moon, 0% of the Moon is Illuminated
Apr 29
New Moon
May 6
First Quarter
May 14
Full
May 21
Last Quarter
May 28
New

Hourly Weather History & Observations

Time (EDT) Temp. Dew Point Humidity Pressure Visibility Wind Dir Wind Speed Gust Speed Precip Events Conditions
12:21 AM 52.0 °F 32.0 °F 47% 29.79 in 10.0 mi East 15.0 mph 25.3 mph N/A   Overcast
12:53 AM 52.0 °F 32.0 °F 47% 29.81 in 10.0 mi ESE 17.3 mph - N/A   Overcast
1:53 AM 51.1 °F 34.0 °F 52% 29.75 in 10.0 mi East 15.0 mph - 0.00 in   Overcast
2:53 AM 51.1 °F 34.0 °F 52% 29.71 in 10.0 mi East 13.8 mph - N/A   Overcast
3:53 AM 50.0 °F 39.0 °F 66% 29.69 in 7.0 mi ESE 15.0 mph 25.3 mph 0.00 in Rain Light Rain
4:53 AM 48.0 °F 42.1 °F 80% 29.66 in 6.0 mi East 15.0 mph - 0.05 in Rain Light Rain
5:16 AM 48.0 °F 43.0 °F 83% 29.65 in 5.0 mi ESE 15.0 mph - 0.01 in Rain Light Rain
5:53 AM 48.9 °F 45.0 °F 86% 29.62 in 5.0 mi ESE 16.1 mph - 0.03 in Rain Light Rain
6:53 AM 50.0 °F 46.0 °F 86% 29.59 in 6.0 mi ESE 17.3 mph 25.3 mph 0.02 in Rain Light Rain
7:34 AM 50.0 °F 46.9 °F 89% 29.57 in 1.5 mi ESE 17.3 mph - 0.05 in Rain Rain
7:53 AM 51.1 °F 46.9 °F 86% 29.57 in 4.0 mi ESE 12.7 mph - 0.07 in Rain Light Rain
8:20 AM 51.1 °F 48.0 °F 89% 29.58 in 1.5 mi SE 11.5 mph - 0.08 in Rain Heavy Rain
8:53 AM 51.8 °F 48.2 °F 88% 29.58 in 1.5 mi SE 11.5 mph - N/A Rain Heavy Rain
9:06 AM 52.0 °F 48.9 °F 89% 29.58 in 3.0 mi SSE 9.2 mph - 0.06 in Rain Rain
9:19 AM 53.1 °F 48.9 °F 86% 29.58 in 1.8 mi SSE 9.2 mph - 0.10 in Rain Rain
9:36 AM 53.1 °F 48.9 °F 86% 29.58 in 2.5 mi SE 11.5 mph - 0.21 in Rain Rain
9:43 AM 53.1 °F 48.9 °F 86% 29.58 in 5.0 mi SE 10.4 mph - 0.21 in Rain Light Rain
9:53 AM 53.1 °F 48.9 °F 86% 29.59 in 10.0 mi SE 12.7 mph - 0.22 in Rain Light Rain
10:16 AM 53.1 °F 48.9 °F 86% 29.58 in 1.5 mi SE 10.4 mph - 0.04 in Rain Light Rain
10:18 AM 53.1 °F 48.9 °F 86% 29.57 in 3.0 mi ESE 11.5 mph - 0.04 in Rain Light Rain
10:27 AM 53.1 °F 50.0 °F 89% 29.56 in 10.0 mi SE 8.1 mph - 0.04 in   Overcast
10:53 AM 53.1 °F 48.9 °F 86% 29.58 in 10.0 mi SE 11.5 mph - 0.04 in   Overcast
11:45 AM 55.9 °F 51.1 °F 84% 29.59 in 10.0 mi SSE 9.2 mph - N/A   Overcast
11:53 AM 57.0 °F 52.0 °F 83% 29.59 in 10.0 mi SSE 12.7 mph - N/A   Overcast
12:53 PM 62.1 °F 55.9 °F 80% 29.61 in 10.0 mi SSE 13.8 mph - N/A   Overcast
1:35 PM 64.0 °F 55.9 °F 75% 29.62 in 10.0 mi South 10.4 mph - N/A   Mostly Cloudy
1:53 PM 64.9 °F 55.9 °F 73% 29.62 in 10.0 mi South 11.5 mph - N/A   Mostly Cloudy
2:25 PM 66.9 °F 55.0 °F 66% 29.62 in 10.0 mi SSW 9.2 mph - N/A   Scattered Clouds
2:53 PM 66.9 °F 55.0 °F 66% 29.62 in 10.0 mi South 6.9 mph - N/A   Clear
3:53 PM 72.0 °F 52.0 °F 49% 29.63 in 10.0 mi SE 12.7 mph - N/A   Partly Cloudy
4:53 PM 73.4 °F 46.4 °F 38% 29.62 in 10.0 mi South 15.0 mph 24.2 mph N/A   Scattered Clouds
5:53 PM 75.0 °F 42.1 °F 31% 29.63 in 10.0 mi South 17.3 mph 27.6 mph N/A   Partly Cloudy
6:53 PM 73.9 °F 41.0 °F 30% 29.65 in 10.0 mi South 10.4 mph 21.9 mph N/A   Partly Cloudy
7:53 PM 70.0 °F 45.0 °F 41% 29.67 in 10.0 mi South 10.4 mph - N/A   Scattered Clouds
8:53 PM 66.0 °F 53.1 °F 63% 29.68 in 10.0 mi ESE 10.4 mph - N/A   Partly Cloudy
9:29 PM 62.1 °F 46.9 °F 58% 29.71 in 10.0 mi West 17.3 mph 26.5 mph 0.00 in Rain , Thunderstorm Light Rain
9:32 PM 61.0 °F 48.0 °F 62% 29.72 in 10.0 mi West 15.0 mph - 0.00 in Rain , Thunderstorm Light Thunderstorms and Rain
9:53 PM 60.1 °F 50.0 °F 69% 29.80 in 4.0 mi South 17.3 mph 26.5 mph 0.08 in Rain , Thunderstorm Thunderstorms and Rain
10:00 PM 59.0 °F 50.0 °F 72% 29.80 in 4.0 mi South 18.4 mph 27.6 mph 0.02 in Rain , Thunderstorm Thunderstorms and Rain
10:53 PM 57.0 °F 51.1 °F 81% 29.78 in 9.0 mi SSE 3.5 mph - 0.10 in Rain , Thunderstorm Light Thunderstorms and Rain
11:09 PM 55.9 °F 52.0 °F 87% 29.80 in 10.0 mi South 6.9 mph - 0.00 in Rain Light Rain
11:53 PM 55.9 °F 52.0 °F 87% 29.77 in 10.0 mi ESE 10.4 mph - 0.01 in   Mostly Cloudy